TimeEDT,TemperatureF,Dew PointF,Humidity,Sea Level PressureIn,VisibilityMPH,Wind Direction,Wind SpeedMPH,Gust SpeedMPH,PrecipitationIn,Events,Conditions,WindDirDegrees,DateUTC
12:51 AM,62.1,54.0,75,30.15,10.0,ESE,3.5,-,N/A,,Overcast,110,2013-09-19 04:51:00
1:51 AM,62.1,54.0,75,30.14,10.0,South,3.5,-,N/A,,Overcast,190,2013-09-19 05:51:00
2:16 AM,62.6,53.6,72,30.14,10.0,South,4.6,-,N/A,,Overcast,180,2013-09-19 06:16:00
2:51 AM,63.0,55.9,78,30.14,10.0,South,3.5,-,N/A,,Overcast,190,2013-09-19 06:51:00
3:34 AM,62.6,57.2,82,30.13,8.0,Calm,Calm,-,0.00,,Light Drizzle,0,2013-09-19 07:34:00
3:51 AM,62.1,57.9,86,30.13,6.0,Calm,Calm,-,0.00,,Overcast,0,2013-09-19 07:51:00
4:18 AM,62.6,57.2,82,30.13,2.5,Calm,Calm,-,0.00,,Light Drizzle,0,2013-09-19 08:18:00
4:51 AM,61.0,59.0,93,30.13,1.5,Calm,Calm,-,0.00,,Light Drizzle,0,2013-09-19 08:51:00
5:12 AM,60.8,59.0,94,30.13,2.0,Calm,Calm,-,0.00,,Light Drizzle,0,2013-09-19 09:12:00
5:36 AM,60.8,59.0,94,30.13,2.0,Calm,Calm,-,0.00,,Overcast,0,2013-09-19 09:36:00
5:51 AM,62.1,59.0,90,30.13,2.0,Calm,Calm,-,0.00,,Overcast,0,2013-09-19 09:51:00
6:51 AM,62.1,60.1,93,30.14,2.0,Calm,Calm,-,N/A,,Overcast,0,2013-09-19 10:51:00
7:51 AM,62.1,59.0,90,30.15,2.0,Calm,Calm,-,N/A,,Overcast,0,2013-09-19 11:51:00
8:51 AM,63.0,60.1,90,30.16,2.0,WSW,4.6,-,N/A,,Overcast,240,2013-09-19 12:51:00
9:36 AM,64.4,59.0,83,30.15,3.0,SW,4.6,-,N/A,,Haze,220,2013-09-19 13:36:00
9:51 AM,64.9,60.1,84,30.16,6.0,SW,5.8,-,N/A,,Haze,220,2013-09-19 13:51:00
10:51 AM,66.0,57.9,75,30.16,7.0,SSW,6.9,-,N/A,,Overcast,210,2013-09-19 14:51:00
11:51 AM,68.0,59.0,73,30.15,7.0,SW,5.8,-,N/A,,Overcast,230,2013-09-19 15:51:00
12:51 PM,70.0,59.0,68,30.14,8.0,South,6.9,-,N/A,,Mostly Cloudy,180,2013-09-19 16:51:00
1:51 PM,71.1,57.9,63,30.12,9.0,Calm,Calm,-,N/A,,Mostly Cloudy,0,2013-09-19 17:51:00
2:30 PM,71.6,57.2,60,30.10,9.0,South,3.5,-,N/A,,Mostly Cloudy,180,2013-09-19 18:30:00
2:51 PM,73.9,57.9,57,30.09,10.0,WSW,6.9,-,N/A,,Scattered Clouds,240,2013-09-19 18:51:00
3:51 PM,73.9,57.9,57,30.07,10.0,South,3.5,-,N/A,,Partly Cloudy,180,2013-09-19 19:51:00
4:51 PM,75.9,57.9,54,30.06,10.0,Variable,4.6,-,N/A,,Scattered Clouds,0,2013-09-19 20:51:00
5:51 PM,73.9,57.9,57,30.08,10.0,WSW,6.9,-,N/A,,Mostly Cloudy,240,2013-09-19 21:51:00
6:51 PM,71.1,60.1,68,30.08,8.0,West,4.6,-,N/A,,Mostly Cloudy,270,2013-09-19 22:51:00
7:51 PM,69.1,60.1,73,30.08,8.0,West,3.5,-,N/A,,Mostly Cloudy,260,2013-09-19 23:51:00
8:51 PM,66.9,60.1,79,30.08,7.0,Calm,Calm,-,N/A,,Mostly Cloudy,0,2013-09-20 00:51:00
9:51 PM,66.0,60.1,81,30.06,7.0,SE,3.5,-,N/A,,Mostly Cloudy,130,2013-09-20 01:51:00
10:51 PM,64.0,60.1,87,30.05,6.0,Calm,Calm,-,N/A,,Scattered Clouds,0,2013-09-20 02:51:00
11:51 PM,63.0,59.0,87,30.06,5.0,Calm,Calm,-,N/A,,Mostly Cloudy,0,2013-09-20 03:51:00